DW0809 Weather Reports


Display with metric or nautical units.
time (UTC)temp
F
wind
direction
speed
MPH
gust
MPH
rain 1hr
in
rain 24hr
in
rain mn
in
humidity
%
barometer
mb
20260507103516 46 0.0 0.0 0.00 0.00 0.00 79 1014.4
20260507102516 46 0.0 0.0 0.00 0.00 0.00 78 1014.3
20260507101517 46 0.0 0.0 0.00 0.00 0.00 78 1014.4
20260507100516 46 0.0 0.0 0.00 0.00 0.00 77 1014.3
20260507095516 46 0.0 0.0 0.00 0.00 0.00 77 1014.5
20260507094516 47 0.0 0.0 0.00 0.00 0.00 76 1014.6
20260507093516 47 0.0 0.0 0.00 0.00 0.00 75 1014.7
20260507092516 47 0.0 0.0 0.00 0.00 0.00 74 1014.9
20260507091516 47 0.0 0.0 0.00 0.00 0.00 73 1014.9
20260507090536 47 0.0 0.0 0.00 0.00 0.00 73 1015.0
20260507085516 47 0.0 0.0 0.00 0.00 0.00 72 1015.1
20260507084516 47 0.0 0.0 0.00 0.00 0.00 71 1015.3
20260507083516 47 0.0 0.0 0.00 0.00 0.00 69 1015.3
20260507082516 47 0.0 0.0 0.00 0.00 0.00 68 1015.4
20260507081516 47 0.0 0.0 0.00 0.00 0.00 67 1015.4
20260507080516 47 0.0 0.0 0.00 0.00 0.00 66 1015.5
20260507075516 47 0.0 0.0 0.00 0.00 0.00 65 1015.6
20260507074516 47 0.0 0.0 0.00 0.00 0.00 63 1015.7
20260507073516 47 0.0 0.0 0.00 0.00 0.00 62 1015.8
20260507072516 48 0.0 0.0 0.00 0.00 0.00 60 1016.0
20260507071516 48 0.0 0.0 0.00 0.00 0.00 59 1016.1
20260507070536 48 0.0 0.0 0.00 0.00 0.00 58 1016.2
20260507065516 48 0.0 0.0 0.00 0.00 0.00 57 1016.4
20260507064516 48 0.0 0.0 0.00 0.00 0.00 54 1016.5
20260507063516 49 0.0 0.0 0.00 0.00 0.00 53 1016.5
20260507062536 49 0.0 0.0 0.00 0.00 0.00 51 1016.7
20260507061517 49 0.0 0.0 0.00 0.00 0.00 49 1016.7
20260507060516 49 0.0 0.0 0.00 0.00 0.00 49 1016.9
20260507055516 49 0.0 0.0 0.00 0.00 0.00 49 1016.9
20260507054516 48 0.0 0.0 0.00 0.00 0.00 49 1016.8
20260507053516 48 0.0 0.0 0.00 0.00 0.00 51 1016.7
20260507052516 48 0.0 0.0 0.00 0.00 0.00 52 1016.7
20260507051516 47 0.0 0.0 0.00 0.00 0.00 56 1016.9
20260507050516 47 0.0 0.0 0.00 0.00 0.00 56 1016.9
20260507045536 47 0.0 0.0 0.00 0.00 0.00 55 1016.9
20260507044516 48 0.0 0.0 0.00 0.00 0.00 54 1016.9
20260507043516 48 0.0 0.0 0.00 0.00 0.00 53 1017.0
20260507042536 48 0.0 0.0 0.00 0.00 0.00 52 1017.1
20260507041536 48 0.0 0.0 0.00 0.00 0.00 53 1017.1
20260507040516 49 0.0 0.0 0.00 0.00 0.00 53 1017.3
20260507035516 49 0.0 0.0 0.00 0.00 0.00 52 1017.3
20260507034516 50 0.0 0.0 0.00 0.00 0.00 50 1017.4
20260507033516 51 0.0 0.0 0.00 0.00 0.00 45 1017.4
20260507032516 52 0.0 0.0 0.00 0.00 0.00 43 1017.5
20260507031536 53 0.0 0.0 0.00 0.00 0.00 37 1017.5
20260507030516 53 0.0 0.0 0.00 0.00 0.00 38 1017.4
20260507025516 53 0.0 0.0 0.00 0.00 0.00 38 1017.4
20260507024516 53 0.0 0.0 0.00 0.00 0.00 39 1017.4
20260507023536 54 0.0 0.0 0.00 0.00 0.00 36 1017.2
20260507022516 54 0.0 0.0 0.00 0.00 0.00 35 1017.2
20260507021516 54 0.0 0.0 0.00 0.00 0.00 33 1017.1
20260507020516 55 0.0 0.0 0.00 0.00 0.00 34 1017.0
20260507015556 55 0.0 0.0 0.00 0.00 0.00 33 1016.9
20260507014516 56 0.0 0.0 0.00 0.00 0.00 33 1017.0
20260507013516 56 0.0 0.0 0.00 0.00 0.00 32 1016.9
20260507012516 57 0.0 0.0 0.00 0.00 0.00 32 1016.9
20260507011516 58 0.0 0.0 0.00 0.00 0.00 31 1016.9
20260507010516 58 0.0 0.0 0.00 0.00 0.00 31 1016.9
20260507005516 59 0.0 0.0 0.00 0.00 0.00 31 1017.0
20260507004516 59 0.0 0.0 0.00 0.00 0.00 30 1017.0
20260507003516 59 0.0 0.0 0.00 0.00 0.00 30 1017.0
20260507002516 59 0.0 4.0 0.00 0.00 0.00 28 1017.1
20260507001516 59 0.0 4.0 0.00 0.00 0.00 29 1017.2
20260507000516 60 0.0 4.0 0.00 0.00 0.00 29 1017.3
20260506235516 60 0.0 0.0 0.00 0.00 0.00 28 1017.4
20260506234516 61 0.0 0.0 0.00 0.00 0.00 27 1017.5
20260506233516 63 0.0 0.0 0.00 0.00 0.00 27 1017.7
20260506232516 62 0.0 0.0 0.00 0.00 0.00 29 1017.6
20260506231516 62 0.0 0.0 0.00 0.00 0.00 28 1017.8
20260506230515 63 0.0 0.0 0.00 0.00 0.00 26 1017.8
20260506225536 62 0.0 0.0 0.00 0.00 0.00 28 1017.9
20260506224536 63 0.0 0.0 0.00 0.00 0.00 28 1017.9
20260506223536 62 0.0 0.0 0.00 0.00 0.00 27 1018.0
20260506222516 63 0.0 0.0 0.00 0.00 0.00 26 1018.2
20260506221516 63 0.0 0.0 0.00 0.00 0.00 26 1018.1
20260506220515 63 0.0 0.0 0.00 0.00 0.00 27 1018.4
20260506215516 62 0.0 0.0 0.00 0.00 0.00 28 1018.3
20260506214515 62 0.0 0.0 0.00 0.00 0.00 28 1018.4
20260506213537 62 0.0 0.0 0.00 0.00 0.00 28 1018.6
20260506212536 61 0.0 0.0 0.00 0.00 0.00 29 1018.7
20260506211535 62 0.0 0.0 0.00 0.00 0.00 28 1018.9
20260506210515 61 0.0 0.0 0.00 0.00 0.00 30 1019.0
20260506205516 61 0.0 0.0 0.00 0.00 0.00 30 1019.2
20260506204515 61 0.0 0.0 0.00 0.00 0.00 29 1019.2
20260506203535 61 0.0 0.0 0.00 0.00 0.00 30 1019.4
20260506202515 60 0.0 0.0 0.00 0.00 0.00 31 1019.4
20260506201535 60 0.0 0.0 0.00 0.00 0.00 31 1019.5
20260506200535 59 0.0 0.0 0.00 0.00 0.00 31 1019.6
20260506195515 59 0.0 0.0 0.00 0.00 0.00 32 1019.6
20260506194515 61 0.0 0.0 0.00 0.00 0.00 31 1019.8
20260506193516 59 0.0 0.0 0.00 0.00 0.00 33 1019.8
20260506192515 59 0.0 0.0 0.00 0.00 0.00 31 1019.9
20260506191515 61 0.0 0.0 0.00 0.00 0.00 33 1019.9
20260506190518 59 0.0 0.0 0.00 0.00 0.00 32 1019.8
20260506185517 59 0.0 0.0 0.00 0.00 0.00 33 1020.0
20260506184538 58 0.0 0.0 0.00 0.00 0.00 32 1020.2
20260506183517 58 0.0 0.0 0.00 0.00 0.00 34 1020.2
20260506182517 57 0.0 0.0 0.00 0.00 0.00 36 1020.3
20260506181517 56 0.0 0.0 0.00 0.00 0.00 35 1020.2
20260506180517 58 0.0 0.0 0.00 0.00 0.00 37 1020.4
20260506175517 56 0.0 0.0 0.00 0.00 0.00 38 1020.7
20260506174518 57 0.0 0.0 0.00 0.00 0.00 36 1020.6
20260506173517 58 0.0 0.0 0.00 0.00 0.00 34 1020.9
20260506172517 57 0.0 0.0 0.00 0.00 0.00 39 1021.1
20260506171517 55 0.0 0.0 0.00 0.00 0.00 38 1021.1
20260506170516 55 0.0 0.0 0.00 0.00 0.00 37 1021.2
20260506165517 55 0.0 0.0 0.00 0.00 0.00 37 1021.2
20260506164537 55 0.0 0.0 0.00 0.00 0.00 36 1021.3
20260506163517 54 0.0 0.0 0.00 0.00 0.00 40 1021.2
20260506162517 55 0.0 0.0 0.00 0.00 0.00 39 1021.3
20260506161538 54 0.0 0.0 0.00 0.00 0.00 39 1021.1
20260506160517 54 0.0 0.0 0.00 0.00 0.00 40 1021.1
20260506155557 55 0.0 0.0 0.00 0.00 0.00 39 1021.2
20260506154517 55 0.0 0.0 0.00 0.00 0.00 40 1021.1
20260506153517 54 0.0 0.0 0.00 0.00 0.00 39 1021.1
20260506152517 54 0.0 0.0 0.00 0.00 0.00 39 1021.1
20260506151517 53 0.0 0.0 0.00 0.00 0.00 39 1021.1
20260506150517 53 0.0 0.0 0.00 0.00 0.00 41 1021.2
20260506145537 53 0.0 0.0 0.00 0.00 0.00 41 1021.2
20260506144537 52 0.0 0.0 0.00 0.00 0.00 44 1021.1
20260506143537 51 0.0 0.0 0.00 0.00 0.00 47 1021.2
20260506142518 50 0.0 0.0 0.00 0.00 0.00 47 1021.1
20260506141517 50 0.0 0.0 0.00 0.00 0.00 49 1021.0
20260506140517 49 0.0 0.0 0.00 0.00 0.00 52 1020.9
20260506135517 48 0.0 0.0 0.00 0.00 0.00 54 1020.8
20260506134637 47 0.0 0.0 0.00 0.00 0.00 55 1020.6
20260506133517 46 0.0 0.0 0.00 0.00 0.00 56 1020.6
20260506132517 45 0.0 0.0 0.00 0.00 0.00 56 1020.4
20260506131517 44 0.0 0.0 0.00 0.00 0.00 57 1020.2
20260506130516 44 0.0 0.0 0.00 0.00 0.00 59 1020.1
20260506125517 43 0.0 0.0 0.00 0.00 0.00 59 1020.1
20260506124537 43 0.0 0.0 0.00 0.00 0.00 60 1019.9
20260506123517 43 0.0 0.0 0.00 0.00 0.00 60 1019.5
20260506122517 42 0.0 0.0 0.00 0.00 0.00 62 1019.4
20260506121517 41 0.0 0.0 0.00 0.00 0.00 63 1019.2
20260506120516 41 0.0 0.0 0.00 0.00 0.00 63 1019.2
20260506115516 41 0.0 0.0 0.00 0.00 0.00 62 1019.1
20260506114537 41 0.0 0.0 0.00 0.00 0.00 61 1018.9
20260506113516 41 0.0 0.0 0.00 0.00 0.00 60 1018.8
20260506112517 41 0.0 0.0 0.00 0.00 0.00 60 1018.8
20260506111516 42 0.0 0.0 0.00 0.00 0.00 58 1018.7
20260506110516 42 0.0 0.0 0.00 0.00 0.00 58 1018.7
20260506105517 42 0.0 0.0 0.00 0.00 0.00 57 1018.8
20260506104516 43 0.0 0.0 0.00 0.00 0.00 56 1018.7
20260506103637 43 0.0 0.0 0.00 0.00 0.00 55 1018.8